| time (UTC) | temp F | wind direction | speed MPH | gust MPH | rain 1hr in | rain 24hr in | rain mn in | humidity % | barometer mb |
| 20260906221824 | 67 | 184 | 1.0 | 9.0 | 0.00 | 0.00 | 0.00 | 39 | 1020.5 |
| 20260906220752 | 67 | 186 | 0.0 | 6.0 | 0.00 | 0.00 | 0.00 | 37 | 1020.5 |
| 20260906215811 | 67 | 227 | 0.0 | 0.0 | 0.00 | 0.00 | 0.00 | 37 | 1020.5 |
| 20260906214815 | 67 | 163 | 2.0 | 10.0 | 0.00 | 0.00 | 0.00 | 37 | 1020.5 |
| 20260906213826 | 68 | 165 | 0.0 | 3.0 | 0.00 | 0.00 | 0.00 | 38 | 1020.9 |
| 20260906212809 | 69 | 197 | 0.0 | 0.0 | 0.00 | 0.00 | 0.00 | 36 | 1020.6 |
| 20260906211800 | 69 | 198 | 0.0 | 1.0 | 0.00 | 0.00 | 0.00 | 38 | 1020.7 |
| 20260906210813 | 69 | 272 | 2.0 | 12.0 | 0.00 | 0.00 | 0.00 | 35 | 1020.7 |
| 20260906205741 | 68 | 274 | 4.0 | 13.0 | 0.00 | 0.00 | 0.00 | 34 | 1020.7 |
| 20260906204748 | 69 | 130 | 1.0 | 13.0 | 0.00 | 0.00 | 0.00 | 33 | 1020.8 |
| 20260906203714 | 68 | 150 | 1.0 | 11.0 | 0.00 | 0.00 | 0.00 | 36 | 1021.0 |
| 20260906202655 | 69 | 174 | 1.0 | 0.0 | 0.00 | 0.00 | 0.00 | 33 | 1021.1 |
| 20260906201640 | 68 | 215 | 2.0 | 0.0 | 0.00 | 0.00 | 0.00 | 36 | 1020.9 |
| 20260906200656 | 67 | 120 | 3.0 | 20.0 | 0.00 | 0.00 | 0.00 | 35 | 1021.2 |
| 20260906195717 | 68 | 154 | 1.0 | 16.0 | 0.00 | 0.00 | 0.00 | 34 | 1021.3 |
| 20260906194718 | 69 | 220 | 1.0 | 10.0 | 0.00 | 0.00 | 0.00 | 33 | 1021.4 |
| 20260906193718 | 68 | 154 | 2.0 | 0.0 | 0.00 | 0.00 | 0.00 | 37 | 1021.7 |
| 20260906192708 | 67 | 168 | 3.0 | 25.0 | 0.00 | 0.00 | 0.00 | 33 | 1021.6 |
| 20260906191649 | 68 | 275 | 3.0 | 15.0 | 0.00 | 0.00 | 0.00 | 31 | 1021.7 |
| 20260906190624 | 68 | 232 | 2.0 | 15.0 | 0.00 | 0.00 | 0.00 | 34 | 1021.8 |
| 20260906185628 | 67 | 296 | 2.0 | 13.0 | 0.00 | 0.00 | 0.00 | 34 | 1021.8 |
| 20260906184631 | 67 | 165 | 0.0 | 0.0 | 0.00 | 0.00 | 0.00 | 33 | 1022.2 |
| 20260906183615 | 68 | 165 | 2.0 | 11.0 | 0.00 | 0.00 | 0.00 | 32 | 1021.8 |
| 20260906182634 | 67 | 137 | 0.0 | 9.0 | 0.00 | 0.00 | 0.00 | 34 | 1022.1 |
| 20260906181610 | 67 | 173 | 4.0 | 15.0 | 0.00 | 0.00 | 0.00 | 32 | 1022.4 |
| 20260906180603 | 67 | 84 | 2.0 | 13.0 | 0.00 | 0.00 | 0.00 | 31 | 1022.4 |
| 20260906175621 | 67 | 176 | 1.0 | 0.0 | 0.00 | 0.00 | 0.00 | 31 | 1022.5 |
| 20260906174624 | 66 | 141 | 0.0 | 8.0 | 0.00 | 0.00 | 0.00 | 31 | 1022.2 |
| 20260906173612 | 66 | 191 | 0.0 | 0.0 | 0.00 | 0.00 | 0.00 | 34 | 1022.5 |
| 20260906172546 | 66 | 127 | 3.0 | 0.0 | 0.00 | 0.00 | 0.00 | 32 | 1022.8 |
| 20260906165329 | 67 | 162 | 3.0 | 15.0 | 0.00 | 0.00 | 0.00 | 34 | 1022.6 |
| 20260906163217 | 66 | 120 | 2.0 | 9.0 | 0.00 | 0.00 | 0.00 | 39 | 1022.8 |
| 20260906162202 | 65 | 231 | 2.0 | 13.0 | 0.00 | 0.00 | 0.00 | 38 | 1023.0 |
| 20260906161143 | 65 | 175 | 4.0 | 13.0 | 0.00 | 0.00 | 0.00 | 37 | 1023.0 |
| 20260906160128 | 66 | 200 | 2.0 | 9.0 | 0.00 | 0.00 | 0.00 | 38 | 1023.1 |
| 20260906155142 | 65 | 231 | 1.0 | 8.0 | 0.00 | 0.00 | 0.00 | 37 | 1023.1 |
| 20260906154155 | 65 | 107 | 2.0 | 8.0 | 0.00 | 0.00 | 0.00 | 40 | 1023.2 |
| 20260906153128 | 64 | 165 | 1.0 | 8.0 | 0.00 | 0.00 | 0.00 | 39 | 1023.4 |
| 20260906152132 | 63 | 123 | 1.0 | 7.0 | 0.00 | 0.00 | 0.00 | 43 | 1023.5 |
| 20260906151100 | 61 | 95 | 2.0 | 7.0 | 0.00 | 0.00 | 0.00 | 46 | 1023.6 |
| 20260906150054 | 58 | 139 | 0.0 | 6.0 | 0.00 | 0.00 | 0.00 | 49 | 1023.5 |
| 20260906140527 | 46 | 164 | 5.0 | 9.0 | 0.00 | 0.00 | 0.00 | 67 | 1023.6 |
| 20260906135511 | 46 | 158 | 6.0 | 9.0 | 0.00 | 0.00 | 0.00 | 67 | 1023.5 |
| 20260906134513 | 46 | 145 | 5.0 | 9.0 | 0.00 | 0.00 | 0.00 | 66 | 1023.5 |
| 20260906132409 | 45 | 153 | 6.0 | 9.0 | 0.00 | 0.00 | 0.00 | 65 | 1023.2 |
| 20260906131356 | 45 | 136 | 5.0 | 9.0 | 0.00 | 0.00 | 0.00 | 66 | 1023.2 |
| 20260906130417 | 45 | 139 | 5.0 | 8.0 | 0.00 | 0.00 | 0.00 | 66 | 1023.1 |
| 20260906125352 | 45 | 150 | 3.0 | 8.0 | 0.00 | 0.00 | 0.00 | 65 | 1023.2 |
| 20260906124401 | 45 | 138 | 4.0 | 8.0 | 0.00 | 0.00 | 0.00 | 65 | 1023.1 |
| 20260906123344 | 46 | 130 | 3.0 | 0.0 | 0.00 | 0.00 | 0.00 | 65 | 1023.2 |
| 20260906121258 | 46 | 144 | 4.0 | 8.0 | 0.00 | 0.00 | 0.00 | 64 | 1023.3 |
| 20260906115204 | 46 | 139 | 3.0 | 0.0 | 0.00 | 0.00 | 0.00 | 63 | 1023.2 |
| 20260906111953 | 47 | 163 | 3.0 | 7.0 | 0.00 | 0.00 | 0.00 | 63 | 1023.4 |
| 20260906111004 | 47 | 185 | 1.0 | 5.0 | 0.00 | 0.00 | 0.00 | 62 | 1023.5 |
| 20260906105948 | 47 | 169 | 2.0 | 9.0 | 0.00 | 0.00 | 0.00 | 62 | 1023.4 |
| 20260906104947 | 46 | 165 | 1.0 | 0.0 | 0.00 | 0.00 | 0.00 | 63 | 1023.4 |
| 20260906103940 | 47 | 137 | 0.0 | 0.0 | 0.00 | 0.00 | 0.00 | 61 | 1023.3 |
| 20260906102932 | 47 | 162 | 1.0 | 8.0 | 0.00 | 0.00 | 0.00 | 62 | 1023.4 |
| 20260906101921 | 47 | 149 | 1.0 | 0.0 | 0.00 | 0.00 | 0.00 | 59 | 1023.4 |
| 20260906100919 | 47 | 159 | 3.0 | 7.0 | 0.00 | 0.00 | 0.00 | 59 | 1023.3 |
| 20260906095918 | 48 | 157 | 3.0 | 8.0 | 0.00 | 0.00 | 0.00 | 58 | 1023.3 |
| 20260906094921 | 48 | 140 | 0.0 | 8.0 | 0.00 | 0.00 | 0.00 | 57 | 1023.2 |
| 20260906092725 | 48 | 151 | 3.0 | 0.0 | 0.00 | 0.00 | 0.00 | 57 | 1023.2 |
| 20260906091748 | 48 | 126 | 3.0 | 8.0 | 0.00 | 0.00 | 0.00 | 57 | 1023.3 |
| 20260906090721 | 48 | 139 | 1.0 | 8.0 | 0.00 | 0.00 | 0.00 | 57 | 1023.2 |
| 20260906085737 | 48 | 155 | 0.0 | 0.0 | 0.00 | 0.00 | 0.00 | 56 | 1023.2 |
| 20260906084723 | 49 | 149 | 3.0 | 0.0 | 0.00 | 0.00 | 0.00 | 56 | 1023.2 |
| 20260906083718 | 49 | 161 | 4.0 | 9.0 | 0.00 | 0.00 | 0.00 | 55 | 1023.1 |
| 20260906082729 | 49 | 175 | 2.0 | 9.0 | 0.00 | 0.00 | 0.00 | 55 | 1023.1 |
| 20260906081732 | 49 | 140 | 1.0 | 9.0 | 0.00 | 0.00 | 0.00 | 55 | 1023.2 |
| 20260906080729 | 49 | 167 | 0.0 | 0.0 | 0.00 | 0.00 | 0.00 | 54 | 1023.1 |
| 20260906075740 | 48 | 186 | 0.0 | 0.0 | 0.00 | 0.00 | 0.00 | 59 | 1023.2 |
| 20260906074743 | 48 | 152 | 0.0 | 0.0 | 0.00 | 0.00 | 0.00 | 56 | 1023.1 |
| 20260906071459 | 49 | 153 | 0.0 | 5.0 | 0.00 | 0.00 | 0.00 | 55 | 1023.2 |
| 20260906070430 | 49 | 154 | 1.0 | 10.0 | 0.00 | 0.00 | 0.00 | 54 | 1023.1 |
| 20260906065409 | 49 | 126 | 4.0 | 9.0 | 0.00 | 0.00 | 0.00 | 53 | 1023.0 |
| 20260906063257 | 49 | 150 | 1.0 | 0.0 | 0.00 | 0.00 | 0.00 | 53 | 1023.0 |
| 20260906062258 | 50 | 139 | 2.0 | 0.0 | 0.00 | 0.00 | 0.00 | 53 | 1022.8 |
| 20260906060223 | 51 | 160 | 4.0 | 10.0 | 0.00 | 0.00 | 0.00 | 51 | 1022.7 |
| 20260906055203 | 50 | 150 | 5.0 | 10.0 | 0.00 | 0.00 | 0.00 | 51 | 1022.7 |
| 20260906054156 | 50 | 142 | 1.0 | 10.0 | 0.00 | 0.00 | 0.00 | 51 | 1022.7 |
| 20260906053216 | 50 | 137 | 3.0 | 8.0 | 0.00 | 0.00 | 0.00 | 51 | 1022.7 |
| 20260906052208 | 51 | 154 | 3.0 | 0.0 | 0.00 | 0.00 | 0.00 | 51 | 1022.7 |
| 20260906051207 | 51 | 133 | 0.0 | 8.0 | 0.00 | 0.00 | 0.00 | 51 | 1022.8 |
| 20260906045038 | 51 | 118 | 4.0 | 9.0 | 0.00 | 0.00 | 0.00 | 50 | 1022.8 |
| 20260906044057 | 52 | 138 | 3.0 | 9.0 | 0.00 | 0.00 | 0.00 | 49 | 1022.9 |
| 20260906043119 | 52 | 149 | 3.0 | 8.0 | 0.00 | 0.00 | 0.00 | 49 | 1022.9 |
| 20260906042124 | 53 | 140 | 0.0 | 7.0 | 0.00 | 0.00 | 0.00 | 47 | 1022.8 |
| 20260906041133 | 53 | 153 | 3.0 | 8.0 | 0.00 | 0.00 | 0.00 | 46 | 1022.7 |
| 20260906040100 | 53 | 134 | 0.0 | 8.0 | 0.00 | 0.00 | 0.00 | 46 | 1022.7 |
| 20260906034003 | 53 | 125 | 0.0 | 8.0 | 0.00 | 0.00 | 0.00 | 45 | 1022.5 |
| 20260906033014 | 54 | 133 | 1.0 | 0.0 | 0.00 | 0.00 | 0.00 | 46 | 1022.3 |
| 20260906032005 | 54 | 142 | 2.0 | 7.0 | 0.00 | 0.00 | 0.00 | 45 | 1022.1 |
| 20260906031021 | 54 | 138 | 0.0 | 0.0 | 0.00 | 0.00 | 0.00 | 45 | 1022.0 |
| 20260906024916 | 56 | 143 | 0.0 | 0.0 | 0.00 | 0.00 | 0.00 | 42 | 1021.8 |
| 20260906023857 | 57 | 154 | 0.0 | 0.0 | 0.00 | 0.00 | 0.00 | 42 | 1021.5 |
| 20260906022914 | 57 | 152 | 0.0 | 0.0 | 0.00 | 0.00 | 0.00 | 41 | 1021.3 |
| 20260906020809 | 60 | 147 | 0.0 | 0.0 | 0.00 | 0.00 | 0.00 | 38 | 1021.0 |
| 20260906015831 | 61 | 155 | 0.0 | 0.0 | 0.00 | 0.00 | 0.00 | 37 | 1021.0 |
| 20260906014805 | 62 | 159 | 0.0 | 0.0 | 0.00 | 0.00 | 0.00 | 35 | 1021.1 |
| 20260906013753 | 63 | 161 | 0.0 | 0.0 | 0.00 | 0.00 | 0.00 | 33 | 1021.2 |
| 20260906012749 | 64 | 159 | 0.0 | 0.0 | 0.00 | 0.00 | 0.00 | 32 | 1021.1 |
| 20260906011721 | 65 | 157 | 0.0 | 0.0 | 0.00 | 0.00 | 0.00 | 30 | 1021.2 |
| 20260906010648 | 67 | 155 | 0.0 | 0.0 | 0.00 | 0.00 | 0.00 | 26 | 1021.1 |
| 20260906005620 | 67 | 148 | 0.0 | 0.0 | 0.00 | 0.00 | 0.00 | 26 | 1021.1 |
| 20260906004558 | 68 | 251 | 0.0 | 5.0 | 0.00 | 0.00 | 0.00 | 25 | 1021.1 |
| 20260906003559 | 69 | 261 | 0.0 | 2.0 | 0.00 | 0.00 | 0.00 | 22 | 1021.0 |
| 20260906002611 | 69 | 259 | 2.0 | 13.0 | 0.00 | 0.00 | 0.00 | 22 | 1021.0 |
| 20260906001603 | 71 | 190 | 0.0 | 6.0 | 0.00 | 0.00 | 0.00 | 22 | 1020.9 |
| 20260906000559 | 71 | 218 | 3.0 | 4.0 | 0.00 | 0.00 | 0.00 | 20 | 1020.9 |
| 20260905235611 | 73 | 177 | 3.0 | 11.0 | 0.00 | 0.00 | 0.00 | 20 | 1020.8 |
| 20260905234554 | 74 | 253 | 2.0 | 11.0 | 0.00 | 0.00 | 0.00 | 21 | 1020.7 |
| 20260905233606 | 74 | 281 | 0.0 | 1.0 | 0.00 | 0.00 | 0.00 | 19 | 1020.7 |
| 20260905232627 | 74 | 192 | 3.0 | 13.0 | 0.00 | 0.00 | 0.00 | 20 | 1020.7 |
| 20260905225404 | 74 | 253 | 2.0 | 11.0 | 0.00 | 0.00 | 0.00 | 21 | 1020.5 |
| 20260905224411 | 73 | 175 | 0.0 | 4.0 | 0.00 | 0.00 | 0.00 | 23 | 1020.7 |
| 20260905223336 | 72 | 131 | 2.0 | 11.0 | 0.00 | 0.00 | 0.00 | 21 | 1020.7 |